This is the latest recevied weather packets stored in our database for station/object G1OCN-WX. If no packets are shown the sender has not sent any weather packets the latest 1 day(s).
| Time | Temp. | Humidity | Pressure | Rain* | Wind** | Luminosity | Snow |
|---|---|---|---|---|---|---|---|
| 1777978233 | 13.89° C | 67% | 1013.2 hPa | 0 mm | 3.58 m/s, 26° | - | - |
| 1777978173 | 13.89° C | 67% | 1013.3 hPa | 0 mm | 4.02 m/s, 11° | - | - |
| 1777978113 | 13.89° C | 67% | 1013.3 hPa | 0 mm | 4.02 m/s, 34° | - | - |
| 1777978053 | 13.89° C | 66% | 1013.2 hPa | 0 mm | 4.47 m/s, 19° | - | - |
| 1777977993 | 13.89° C | 66% | 1013.2 hPa | 0 mm | 4.47 m/s, 45° | - | - |
| 1777977933 | 13.89° C | 66% | 1013.3 hPa | 0 mm | 5.81 m/s, 52° | - | - |
| 1777977878 | 13.89° C | 66% | 1013.2 hPa | 0 mm | 5.36 m/s, 34° | - | - |
| 1777977813 | 13.89° C | 66% | 1013.2 hPa | 0 mm | 5.36 m/s, 43° | - | - |
| 1777977753 | 13.89° C | 66% | 1013.2 hPa | 0 mm | 5.36 m/s, 32° | - | - |
| 1777977693 | 13.89° C | 67% | 1013.3 hPa | 0 mm | 5.36 m/s, 37° | - | - |
| 1777977633 | 13.89° C | 67% | 1013.2 hPa | 0 mm | 4.47 m/s, 49° | - | - |
| 1777977573 | 13.89° C | 67% | 1013.3 hPa | 0 mm | 4.02 m/s, 50° | - | - |
| 1777977513 | 13.89° C | 67% | 1013.3 hPa | 0 mm | 4.02 m/s, 47° | - | - |
| 1777977452 | 13.89° C | 67% | 1013.3 hPa | 0 mm | 3.13 m/s, 42° | - | - |
| 1777977392 | 13.89° C | 67% | 1013.3 hPa | 0 mm | 3.58 m/s, 60° | - | - |
| 1777977332 | 13.89° C | 67% | 1013.3 hPa | 0 mm | 4.47 m/s, 32° | - | - |
| 1777977272 | 13.89° C | 68% | 1013.3 hPa | 0 mm | 4.47 m/s, 39° | - | - |
| 1777977212 | 13.89° C | 68% | 1013.3 hPa | 0 mm | 4.47 m/s, 49° | - | - |
| 1777977152 | 13.89° C | 68% | 1013.4 hPa | 0 mm | 4.02 m/s, 55° | - | - |
| 1777977092 | 13.89° C | 68% | 1013.4 hPa | 0 mm | 4.47 m/s, 49° | - | - |
| 1777977032 | 13.89° C | 68% | 1013.4 hPa | 0 mm | 4.47 m/s, 54° | - | - |
| 1777976972 | 13.89° C | 68% | 1013.4 hPa | 0 mm | 5.36 m/s, 59° | - | - |
| 1777976912 | 13.89° C | 69% | 1013.4 hPa | 0 mm | 4.47 m/s, 54° | - | - |
| 1777976852 | 13.89° C | 70% | 1013.4 hPa | 0 mm | 3.13 m/s, 60° | - | - |
| 1777976792 | 13.89° C | 69% | 1013.4 hPa | 0 mm | 3.58 m/s, 51° | - | - |
* Rain latest hour (hover to see other rain measurements)
** Current wind speed in m/s (hover to see current wind gust speed)